TimeMDT,TemperatureF,Dew PointF,Humidity,Sea Level PressureIn,VisibilityMPH,Wind Direction,Wind SpeedMPH,Gust SpeedMPH,PrecipitationIn,Events,Conditions,WindDirDegrees,DateUTC
12:53 AM,52.0,39.9,63,29.79,10.0,SSE,15.0,21.9,N/A,,Clear,150,2013-09-25 06:53:00
1:53 AM,50.0,39.9,68,29.76,10.0,SE,12.7,-,N/A,,Clear,140,2013-09-25 07:53:00
2:53 AM,48.9,41.0,74,29.73,10.0,SE,11.5,-,N/A,,Clear,140,2013-09-25 08:53:00
3:53 AM,46.9,41.0,80,29.71,10.0,SE,12.7,-,N/A,,Clear,140,2013-09-25 09:53:00
4:53 AM,48.0,42.1,80,29.70,10.0,SSW,5.8,-,N/A,,Clear,200,2013-09-25 10:53:00
5:53 AM,46.0,42.1,86,29.70,10.0,South,6.9,-,N/A,,Clear,170,2013-09-25 11:53:00
6:53 AM,43.0,41.0,93,29.74,10.0,Calm,Calm,-,N/A,,Clear,0,2013-09-25 12:53:00
7:53 AM,48.9,44.1,83,29.71,10.0,SSE,8.1,-,N/A,,Clear,160,2013-09-25 13:53:00
8:53 AM,59.0,46.0,62,29.66,10.0,SSW,6.9,-,N/A,,Clear,210,2013-09-25 14:53:00
9:53 AM,66.0,45.0,47,29.65,10.0,WSW,3.5,-,N/A,,Clear,250,2013-09-25 15:53:00
10:53 AM,70.0,43.0,38,29.62,10.0,South,11.5,-,N/A,,Clear,180,2013-09-25 16:53:00
11:53 AM,73.0,44.1,35,29.58,10.0,SSE,10.4,-,N/A,,Clear,150,2013-09-25 17:53:00
12:53 PM,75.9,41.0,29,29.54,10.0,SSE,10.4,19.6,N/A,,Clear,160,2013-09-25 18:53:00
1:53 PM,80.1,45.0,29,29.47,10.0,SSE,20.7,27.6,N/A,,Clear,160,2013-09-25 19:53:00
2:53 PM,82.0,42.1,24,29.44,10.0,South,25.3,36.8,N/A,,Clear,190,2013-09-25 20:53:00
3:53 PM,82.9,30.9,15,29.42,10.0,South,25.3,38.0,N/A,,Clear,190,2013-09-25 21:53:00
4:53 PM,82.9,35.1,18,29.40,10.0,South,23.0,39.1,N/A,,Clear,180,2013-09-25 22:53:00
5:53 PM,80.1,34.0,19,29.39,10.0,South,20.7,-,N/A,,Clear,180,2013-09-25 23:53:00
6:53 PM,73.9,37.9,27,29.42,10.0,South,20.7,-,N/A,,Clear,180,2013-09-26 00:53:00
7:53 PM,68.0,41.0,37,29.42,10.0,South,18.4,25.3,N/A,,Clear,170,2013-09-26 01:53:00
8:53 PM,68.0,45.0,43,29.40,10.0,South,21.9,-,N/A,,Clear,180,2013-09-26 02:53:00
9:53 PM,64.9,45.0,48,29.40,10.0,South,20.7,25.3,N/A,,Clear,180,2013-09-26 03:53:00
10:53 PM,62.1,43.0,50,29.41,10.0,South,21.9,-,N/A,,Clear,190,2013-09-26 04:53:00
11:53 PM,66.0,37.0,34,29.39,10.0,SSW,24.2,28.8,N/A,,Clear,200,2013-09-26 05:53:00